ZHUHAI-1 02 (CAS-4B) (42759 NORAD) Tracking and Keplerian Element Data

This shows tracking and keplerian element data for the satellite.

Feedback or suggestion? Click here.




ElementValue
Catalog42759
NameZHUHAI-1 02 (CAS-4B)
Epoch Orbit42308
Epoch Day35.19038325
Epoch Year2025
RAAN339.6128
Inclination43.013
Eccentricity0.0015284
Argument of Perigee141.1624
Mean Anonmoly219.0336
Mean Motion15.46417853
Decay Rate0.00055004
L11 42759U 17034B 25035.19038325 .00055004 00000+0 10791-2 0 9991
L22 42759 43.0130 339.6128 0015284 141.1624 219.0336 15.46417853423086



Live tracking and technical data element details for ZHUHAI-1 02 (CAS-4B) (NORAD 42759). ZHUHAI-1 02 (CAS-4B) can be tracked NOW for your location showing map with azimuth and elevation plus other details from your city location.







IsCatalogInMostPopularTable: catalog: 42759, numindb: 1087
Update: records affected: 1



GetName: 42759 ZHUHAI-1 02 (CAS-4B)

Hit Count: updated at: Sat, 17 May 2025 09:20:18 GMT